Regional Weather Roundup
Issued by NWS

Home | Current Version | Previous Version | Text Only | Print | Product List | Glossary On
Versions: 1 2 3 4 5 6 7 8 9 10 11 12 13 14 15 16 17 18 19 20 21 22 23 24 25 26 27 28 29 30 31 32 33 34 35 36 37 38 39 40 41 42 43 44 45 46 47 48 49 50
000
ASUS44 KFWD 270503
RWRTX
NORTH TEXAS HOURLY WEATHER ROUNDUP
NATIONAL WEATHER SERVICE FORT WORTH TX
1200 AM CDT WED JUL 27 2016

NOTE: "FAIR" INDICATES FEW OR NO CLOUDS BELOW 12,000 FEET WITH NO
SIGNIFICANT WEATHER AND/OR OBSTRUCTIONS TO VISIBILITY.

TXZ118-119-270600-
DALLAS/FORT WORTH METROPLEX

CITY           SKY/WX    TMP DP  RH WIND       PRES   REMARKS
DFW AIRPORT    MOCLDY    83  72  69 NE6       29.91S
DALLAS LOVE    MOCLDY    84  73  69 VRB3      29.91S HX  90
FTW MEACHAM    PTCLDY    86  71  60 E6        29.92S HX  91
DAL-EXECUTIVE  PTCLDY    83  71  67 E8        29.92S
FTW-ALLIANCE   MOCLDY    82  71  69 E3        29.92F
FTW-NAS-JRB    PTCLDY    86  70  58 SE5       29.92S HX  90
FTW-SPINKS     MOCLDY    79  73  81 CALM      29.94S
ARLINGTON      PTCLDY    83  72  69 E3        29.93R
GRAND PRAIRIE  PTCLDY    83  71  66 E5        29.94R
ADDISON        CLEAR     83  74  73 E7        29.94S HX  90
MESQUITE       CLEAR     77  76  94 S5        29.92S
LANCASTER      CLEAR     81  71  73 E5        29.93S
$$

TXZ091>094-102>105-117-120-121-131>134-270600-
NORTH CENTRAL TEXAS

CITY           SKY/WX    TMP DP  RH WIND       PRES   REMARKS
SHRMAN/DENISON CLEAR     77  77 100 E3        29.95S
BOWIE          PTCLDY    77  72  85 CALM      29.96S
BRIDGEPORT     PTCLDY    79  73  81 E3        29.95F
DECATUR        PTCLDY    78  70  77 E5        29.95S
DENTON         CLOUDY    81  73  76 CALM      29.92F
MCKINNEY       CLOUDY    79  74  84 CALM      29.92F
GREENVILLE     CLOUDY    77  73  88 CALM      29.92F
ROCKWALL       CLEAR     79  72  78 SE3       29.91F
TERRELL        CLEAR     81  74  79 SE5       29.93R
WAXAHACHIE     PTCLDY    79  72  79 CALM      29.94S
CLEBURNE       PTCLDY    82  75  78 CALM      29.95S
GRANBURY       PTCLDY    84  71  63 CALM      29.94R
$$

TXZ083>090-098>101-113>116-127>130-139>142-154-155-270600-
WESTERN NORTH TEXAS

CITY           SKY/WX    TMP DP  RH WIND       PRES   REMARKS
WICHITA FALLS  CLEAR     79  72  79 SE6       29.95R
WF-KICKAPOO    CLEAR     82  72  71 E13       29.96S
VERNON         CLEAR     83  67  57 E6        29.97S
ABILENE        CLEAR     81  66  60 SE7       29.98R
ABILENE-DYESS  CLEAR     83  66  56 SE7       29.96S
CISCO          CLEAR     81  68  65 SE5       29.98S
GRAHAM         CLEAR     82  70  68 E3        29.94R
MINERAL WELLS  CLOUDY    79  72  79 E5        29.93R
STEPHENVILLE   PTCLDY    81  67  63 CALM      29.98S
COMANCHE       CLEAR     81  70  69 S6        29.96F
COLEMAN        CLEAR     82  66  59 S6        29.98R
$$

TXZ143>147-156>162-174-175-270600-
CENTRAL TEXAS

CITY           SKY/WX    TMP DP  RH WIND       PRES   REMARKS
WACO           CLEAR     82  72  71 S12       29.92S
WACO-MCGREGOR  CLEAR     81  72  74 S9        29.94R
HILLSBORO      PTCLDY    81  72  75 SE7       29.93S
CORSICANA      CLEAR     81  74  79 S6        29.93F
MEXIA          CLOUDY    77  76  96 S9        29.92S
HEARNE         CLEAR     77  74  90 CALM      29.95R
CAMERON        PTCLDY    79  74  83 S8        29.93F
TEMPLE         CLOUDY    79  73  82 S8        29.95R
KILLEEN        CLEAR     77  72  83 SE7       29.94F
KILLEEN-SKYLRK   N/A     78  73  84 S6        29.95S
FORT HOOD      CLEAR     78  70  77 S7        29.93S
HAMILTON       CLEAR     78  72  80 S7        29.97S
LAMPASAS       CLEAR     78  74  86 CALM      29.96S
$$

TXZ095>097-106>112-122>126-135>138-148>153-164>167-270600-
EAST TEXAS

CITY           SKY/WX    TMP DP  RH WIND       PRES   REMARKS
PARIS          CLEAR     77  66  69 CALM      29.93S
SULPHUR SPRNGS CLEAR     78  74  87 CALM      29.94S
MOUNT PLEASANT CLEAR     79  73  81 CALM      29.92F
GILMER         PTCLDY    82  72  72 S5        29.91F
MINEOLA        CLEAR     79  73  83 CALM      29.93S
TYLER          CLEAR     81  73  76 S5        29.92F
LONGVIEW       PTCLDY    79  74  84 CALM      29.91S
MARSHALL       CLEAR     75  71  86 CALM      29.94R
ATHENS         CLEAR     75  75 100 CALM      29.91S
PALESTINE      CLEAR     78  75  89 CALM      29.94F
JACKSONVILLE     N/A     78  75  88 S3        29.95F
HENDERSON      CLEAR     78  75  90 CALM      29.93S
CENTER         CLOUDY    78  76  95 CALM      29.93S
NACOGDOCHES    PTCLDY   N/A N/A N/A CALM      29.91S
LUFKIN         CLEAR     77  75  93 SW3       29.91F
$$

SUPPLEMENTAL OBSERVATIONS (CENTRAL)

CITY           SKY/WX    TMP DP  RH WIND       PRES   REMARKS
$$

SUPPLEMENTAL OBSERVATIONS (WEST)

CITY           SKY/WX    TMP DP  RH WIND       PRES   REMARKS
$$

SUPPLEMENTAL OBSERVATIONS (EAST)

CITY           SKY/WX    TMP DP  RH WIND       PRES   REMARKS
$$

SUPPLEMENTAL OBSERVATIONS ARE A COLLECTION OF AUTOMATED INSTRUMENTS
THAT ARE MAINTAINED BY A VARIETY OF FEDERAL AND STATE AGENCIES.
CERTAIN ELEMENTS...SUCH AS HUMIDITY VALUES AND SUSTAINED WIND
SPEEDS...MAY BE APPROXIMATED.




USA.gov is the U.S. government's official web portal to all federal, state and local government web resources and services.